STARLINK-1154, 45198

Orbit data source: Space-Track

STARLINK-1154, 45198 is a payload satellite owned by SpaceX/Seattle (US) in LEO that was launched on Mon, 17 Feb 2020 UTC via an FALCON 9 launch vehicle from the Air Force Eastern Test Range (AFETR). Payload-class satellites include a variety of spacecraft equipped with specific instruments for various scientific and technological missions. These include communications satellites like Starlink; space stations such as the ISS; scientific satellites like the Hubble; Earth observation satellites from companies like Planet Labs, Umbra, and HawkEye 360; GPS; miniature CubeSats for education and research; and military/defense satellites.

Loading next visibility...
Identifier
45198, 2020-012W
Orbit
LEO
Country
Flag of USUS
Related business
Manufacturer
SpaceX/Seattle
Mission
Partially operational Commercial Communications
Bus & Motor
STARLINK, Unknown motor
Mass
260 kg wet, ~248 kg dry
Launch date (UTC)
2020-02-17 (7 years ago)
Launch vehicle
FALCON 9
Launch site
Air Force Eastern Test Range (AFETR)
Object type
Payload
Rocket body
Debris
Shape & HBR
Box + 1 Pan, 10.1 m
Radar Cross Section
13.562 m², Large (>1 m²)

Expand to show TLE details & history
Last TLE update: 16 hours ago

TLE from 16 hours ago
0 STARLINK-1154
1 45198U 20012W   26253.52748541  .00046129  00000-0  35509-3 0  9993
2 45198  53.0386 188.1523 0002140  54.8069 305.3148 15.71554300364166
Epoch: 2026-09-10T12:39Z
TLE epoch observation values (Epoch: 2026-09-10T12:39:34.739Z)
Latitude
-0.00004°
Longitude
8.69361°
Altitude
354.524 km
Speed
7.698 km/s
True Right ascension
12h 32m 36s
True Declination
0° 00' 00"
Sunlit
Object was in daylight at epoch
Visualization orbit readout
Latitude
Unknown
Longitude
Unknown
Altitude
Unknown
Speed
Unknown
Apparent Right ascension
Unknown
Apparent Declination
Unknown
Sunlit
N/A
Visualization observer readout
Local Sidereal Time
21:29:20
Azimuth
Unknown
Elevation
Unknown
Doppler factor
Unknown
Orbital elements
Apogee altitude
356.176 km
Perigee altitude
353.294 km
Semi-major axis
6,732.872 km
Eccentricity
0.00021
Inclination
53.0386°
RAAN
188.1523°
Arg. of periapsis
54.8069°
True anomaly
305.29479°
Mean anomaly
305.3148°
Eccentric anomaly
305.30479°
Mean motion
3.92864 °/min
Orbital period
91.63 mins
BSTAR
0.00035509
Loading maneuver chart data...
Computing Atmospheric mass density...

Documentation

Showing up to 5 results
|